Regional Weather Roundup
Issued by NWS

Home | Current Version | Previous Version | Graphics & Text | Print | Product List | Glossary On
Versions: 1 2 3 4 5 6 7 8 9 10 11 12 13 14 15 16 17 18 19 20 21 22 23 24 25 26 27
000
ASUS45 KCYS 242010
RWRWY

WYOMING REGIONAL WEATHER ROUNDUP
NATIONAL WEATHER SERVICE CHEYENNE WY
200 PM MDT TUE MAY 24 2016

NOTE:  "FAIR" INDICATES FEW OR NO CLOUDS BELOW 12,000 FEET
WITH NO SIGNIFICANT WEATHER AND/OR OBSTRUCTIONS TO VISIBILITY.

WYZ001-242100-
YELLOWSTONE NATIONAL PARK

CITY           SKY/WX    TMP DP  RH WIND       PRES   REMARKS
LK YELLOWSTONE   N/A     45  29  53 VRB7      29.97R
W YELLOWSTONE  NOT AVBL

$$
WYZ002>013-054>058-071-098>099-242100-
NORTHERN WYOMING

CITY           SKY/WX    TMP DP  RH WIND       PRES   REMARKS
JACKSON        PTSUNNY   46  32  57 SW21      29.91R
CODY           FAIR      59  41  51 N8        29.85F
GREYBULL       FAIR      72  25  17 VRB3      29.80F
WORLAND        FAIR      69  30  23 SE7       29.80F
SHERIDAN       FAIR      65  39  38 E6        29.86F
BUFFALO        PTSUNNY   65  36  34 S13       29.89S
GILLETTE       PTSUNNY   67  35  30 VRB3      29.87F
HULETT         MOCLDY    70  34  26 S9        29.90R
NEWCASTLE      FAIR      70  30  23 SE15G23   29.90F

$$
WYZ014>020-022>026-101>103-242100-
CENTRAL WYOMING

CITY           SKY/WX    TMP DP  RH WIND       PRES   REMARKS
BIG PINEY      LGT RAIN  45  34  65 NW29G35   29.93R
PINEDALE       FAIR      55  30  38 CALM      29.91F
DUBOIS         CLOUDY    55  25  30 E12       29.86F
LANDER         PTSUNNY   59  35  40 NW9       29.82F
RIVERTON       FAIR      67  31  26 E8        29.84F
CASPER         FAIR      70  38  31 E12       29.84F
DOUGLAS        TSTM      63  45  51 SE22G33   29.87F

$$
WYZ021-027>030-104>119-242100-
SOUTHERN WYOMING

CITY           SKY/WX    TMP DP  RH WIND       PRES   REMARKS
EVANSTON       FAIR      53  33  46 VRB6      29.91S
KEMMERER         N/A     52  32  46 SE7       29.94S
FORT BRIDGER   MOCLDY    48  41  76 NW8       29.96S
ROCK SPRINGS   PTSUNNY   66  20  17 S29G39    29.85F
DIXON          FAIR      67  25  20 W20G25    29.93F
RAWLINS        PTSUNNY   62  22  21 SW23G32   29.92S
SARATOGA       MOCLDY    63  21  20 SW16G23   29.93S
LARAMIE        PTSUNNY   57  42  57 SE33G41   29.94S
CHEYENNE       FAIR      66  43  43 S26G37    29.93F
TORRINGTON     FAIR      74  47  38 SE22G32   29.85F
PINE BLUFFS    MOCLDY    70  43  37 SE17G29   29.92F

$$




USA.gov is the U.S. government's official web portal to all federal, state and local government web resources and services.